DW2485 Weather Reports


Display with metric or nautical units.
time (UTC)temp
F
wind
direction
speed
MPH
gust
MPH
rain 1hr
in
rain 24hr
in
rain mn
in
humidity
%
barometer
mb
20260831041006 73 143 5.0 9.0 0.00 0.33 0.33 90 1014.2
20260831040005 73 134 7.0 12.0 0.00 0.33 0.33 90 1014.2
20260831035506 73 132 7.0 10.0 0.00 0.33 0.33 90 1014.2
20260831035006 73 135 6.0 9.0 0.00 0.33 0.33 90 1014.4
20260831034505 73 134 7.0 12.0 0.00 0.33 0.33 91 1014.5
20260831034006 73 138 5.0 12.0 0.00 0.33 0.33 91 1014.5
20260831033505 73 123 8.0 10.0 0.00 0.33 0.33 91 1014.4
20260831032506 72 127 6.0 9.0 0.00 0.33 0.33 92 1014.7
20260831031505 72 127 6.0 9.0 0.00 0.33 0.33 92 1014.8
20260831031006 72 125 6.0 8.0 0.00 0.33 0.33 92 1014.8
20260831025505 72 119 3.0 6.0 0.00 0.33 0.33 92 1015.0
20260831024006 72 95 5.0 7.0 0.00 0.34 0.33 92 1014.9
20260831021505 73 103 5.0 6.0 0.00 0.35 0.33 90 1014.9
20260831021005 73 108 6.0 9.0 0.00 0.35 0.33 90 1014.8
20260831013505 73 90 6.0 8.0 0.00 0.35 0.33 90 1014.6
20260831013006 73 83 5.0 7.0 0.00 0.35 0.33 90 1014.7
20260831012505 73 87 5.0 6.0 0.00 0.35 0.33 89 1014.6
20260831012005 73 97 4.0 7.0 0.00 0.35 0.33 89 1014.7
20260831011506 74 107 2.0 3.0 0.00 0.35 0.33 88 1014.7
20260831011005 74 103 3.0 6.0 0.00 0.35 0.33 88 1014.6
20260831004006 74 112 7.0 12.0 0.00 0.35 0.33 87 1014.2
20260831003505 74 103 8.0 10.0 0.00 0.35 0.33 87 1014.2
20260831001006 75 105 7.0 12.0 0.00 0.35 0.33 87 1014.5
20260831000505 75 109 7.0 9.0 0.00 0.35 0.33 87 1014.7
20260830235505 75 95 6.0 10.0 0.00 0.35 0.33 87 1014.7
20260830235006 75 96 6.0 9.0 0.00 0.35 0.33 88 1014.6
20260830233005 75 89 3.0 6.0 0.00 0.35 0.33 89 1014.7
20260830232505 75 86 3.0 6.0 0.00 0.35 0.33 89 1014.6
20260830231505 75 92 2.0 3.0 0.00 0.35 0.33 89 1014.7
20260830230505 75 63 2.0 3.0 0.00 0.35 0.33 89 1014.9
20260830225505 75 117 1.0 2.0 0.00 0.35 0.33 88 1014.9
20260830224505 75 117 2.0 3.0 0.00 0.35 0.33 88 1014.7
20260830224005 75 163 1.0 2.0 0.00 0.35 0.33 88 1014.8
20260830223505 75 163 1.0 2.0 0.00 0.35 0.33 87 1014.9
20260830223005 75 163 1.0 2.0 0.00 0.35 0.33 87 1015.0
20260830222505 75 163 1.0 3.0 0.00 0.35 0.33 88 1015.0
20260830222005 75 147 2.0 3.0 0.00 0.35 0.33 88 1015.0
20260830221505 75 158 2.0 3.0 0.00 0.35 0.33 88 1014.9
20260830221006 75 152 1.0 2.0 0.00 0.35 0.33 88 1015.0
20260830215006 74 151 4.0 7.0 0.00 0.35 0.33 88 1014.8
20260830214005 73 154 4.0 7.0 0.01 0.35 0.33 91 1014.6
20260830213505 73 136 5.0 8.0 0.01 0.35 0.33 90 1014.5
20260830213006 73 143 7.0 9.0 0.02 0.35 0.33 91 1014.5
20260830212005 72 137 6.0 9.0 0.05 0.35 0.33 91 1014.6
20260830211005 72 122 5.0 10.0 0.12 0.35 0.33 91 1014.7
20260830210006 72 141 4.0 9.0 0.13 0.35 0.33 92 1014.9
20260830203505 71 147 12.0 18.0 0.18 0.34 0.32 92 1013.7
20260830202505 71 128 13.0 16.0 0.20 0.32 0.30 92 1014.1
20260830200505 71 145 7.0 12.0 0.12 0.23 0.21 92 1015.7
20260830200005 71 154 6.0 12.0 0.11 0.22 0.20 91 1016.0
20260830195005 71 141 7.0 10.0 0.08 0.19 0.17 91 1016.1
20260830193505 71 181 3.0 3.0 0.05 0.16 0.14 91 1016.7
20260830192504 72 177 3.0 3.0 0.01 0.12 0.10 90 1016.5
20260830192005 72 155 1.0 3.0 0.01 0.12 0.10 90 1016.1
20260830191505 72 173 2.0 3.0 0.00 0.11 0.09 90 1016.4
20260830191005 72 195 3.0 3.0 0.00 0.11 0.09 90 1016.6
20260830190505 72 184 3.0 7.0 0.00 0.11 0.09 90 1016.4
20260830185504 72 182 4.0 6.0 0.01 0.11 0.09 89 1016.1
20260830183504 72 158 2.0 7.0 0.02 0.12 0.09 90 1016.4
20260830182505 72 150 3.0 6.0 0.03 0.12 0.09 91 1015.8
20260830182005 72 101 4.0 7.0 0.04 0.12 0.09 91 1015.6
20260830181005 72 120 5.0 8.0 0.04 0.12 0.09 91 1015.7
20260830180504 71 138 4.0 6.0 0.06 0.13 0.09 91 1016.1
20260830175005 71 191 3.0 3.0 0.05 0.12 0.08 91 1016.6
20260830174504 71 184 3.0 3.0 0.07 0.12 0.08 91 1016.4
20260830173505 71 214 1.0 3.0 0.07 0.12 0.07 91 1016.3
20260830173004 71 269 1.0 2.0 0.07 0.13 0.07 91 1016.3
20260830172505 71 269 1.0 3.0 0.06 0.13 0.06 90 1016.3
20260830172005 71 263 2.0 3.0 0.05 0.12 0.05 90 1016.4
20260830171504 71 17 1.0 2.0 0.05 0.13 0.05 90 1016.1
20260830170004 72 140 1.0 3.0 0.03 0.12 0.03 88 1016.0
20260830164005 74 202 5.0 9.0 0.01 0.11 0.01 79 1015.5
20260830162504 76 202 6.0 12.0 0.00 0.12 0.00 75 1015.5
20260830160505 78 190 6.0 10.0 0.00 0.12 0.00 72 1015.3
20260830160004 78 202 10.0 13.0 0.00 0.12 0.00 70 1015.0
20260830155504 79 188 7.0 15.0 0.00 0.13 0.00 70 1014.8
20260830155004 80 201 9.0 15.0 0.00 0.13 0.00 68 1014.8
20260830154005 80 194 10.0 15.0 0.00 0.13 0.00 68 1014.3
20260830153005 79 183 9.0 16.0 0.00 0.13 0.00 69 1014.3
20260830152005 79 171 7.0 14.0 0.00 0.13 0.00 69 1014.2
20260830150505 78 201 7.0 16.0 0.00 0.13 0.00 72 1014.5
20260830150004 77 160 6.0 9.0 0.00 0.13 0.00 72 1014.4
20260830145505 77 207 6.0 10.0 0.00 0.13 0.00 71 1014.4
20260830143504 77 200 7.0 14.0 0.00 0.13 0.00 71 1014.2
20260830143005 76 184 10.0 16.0 0.00 0.13 0.00 73 1014.1
20260830142504 75 191 10.0 15.0 0.00 0.13 0.00 74 1014.0
20260830142004 74 177 6.0 13.0 0.00 0.13 0.00 73 1013.9
20260830141005 74 173 9.0 14.0 0.00 0.13 0.00 75 1013.9
20260830140504 74 172 9.0 16.0 0.00 0.13 0.00 75 1013.8
20260830135505 74 168 6.0 14.0 0.00 0.13 0.00 75 1013.6
20260830134004 73 176 6.0 12.0 0.00 0.13 0.00 77 1013.8
20260830132004 71 178 4.0 8.0 0.00 0.13 0.00 78 1013.9
20260830131004 71 180 6.0 12.0 0.00 0.13 0.00 78 1014.1
20260830130005 71 180 5.0 9.0 0.00 0.13 0.00 77 1014.1
20260830125004 71 180 6.0 12.0 0.00 0.13 0.00 78 1014.0
20260830123004 71 165 5.0 7.0 0.00 0.13 0.00 79 1014.3
20260830120004 70 192 3.0 5.0 0.00 0.13 0.00 79 1014.2
20260830114504 69 174 4.0 6.0 0.00 0.13 0.00 80 1014.0
20260830114004 70 168 3.0 6.0 0.00 0.13 0.00 79 1014.1
20260830113505 70 169 3.0 6.0 0.00 0.13 0.00 79 1014.1
20260830112504 70 169 3.0 6.0 0.00 0.13 0.00 79 1013.9
20260830111504 70 175 3.0 6.0 0.00 0.13 0.00 78 1013.9
20260830105504 70 185 2.0 3.0 0.00 0.13 0.00 79 1013.9
20260830104004 70 191 3.0 7.0 0.00 0.13 0.00 79 1014.1
20260830102504 70 191 5.0 9.0 0.00 0.13 0.00 79 1014.2
20260830102005 70 178 6.0 9.0 0.00 0.13 0.00 79 1014.1
20260830101005 70 180 5.0 9.0 0.00 0.13 0.00 79 1014.0
20260830100504 70 170 5.0 9.0 0.00 0.13 0.00 79 1014.1
20260830095504 71 170 6.0 10.0 0.00 0.13 0.00 79 1014.2
20260830094004 71 189 5.0 8.0 0.00 0.13 0.00 78 1014.2
20260830093504 71 178 5.0 9.0 0.00 0.13 0.00 78 1014.3
20260830091004 71 176 6.0 10.0 0.00 0.13 0.00 78 1014.4
20260830085505 71 176 6.0 12.0 0.00 0.13 0.00 77 1014.4
20260830084504 72 168 7.0 12.0 0.00 0.13 0.00 77 1014.3
20260830084004 72 171 7.0 10.0 0.00 0.13 0.00 77 1014.4
20260830082504 72 170 7.0 12.0 0.00 0.13 0.00 77 1014.3
20260830082004 72 169 7.0 12.0 0.00 0.13 0.00 77 1014.3
20260830080504 71 181 6.0 12.0 0.00 0.13 0.00 79 1014.3
20260830075004 71 181 5.0 7.0 0.00 0.13 0.00 81 1014.2
20260830074503 70 164 3.0 6.0 0.00 0.13 0.00 82 1014.2
20260830074004 70 163 4.0 8.0 0.00 0.13 0.00 82 1014.2
20260830072505 71 167 4.0 6.0 0.00 0.13 0.00 81 1014.3
20260830071505 71 157 4.0 7.0 0.00 0.13 0.00 81 1014.4
20260830071004 71 163 5.0 9.0 0.00 0.13 0.00 81 1014.5
20260830070504 71 165 4.0 7.0 0.00 0.13 0.00 81 1014.6
20260830070004 71 177 5.0 8.0 0.00 0.13 0.00 81 1014.6
20260830065004 71 175 5.0 9.0 0.00 0.13 0.00 82 1014.8
20260830064004 71 175 6.0 10.0 0.00 0.13 0.00 82 1014.9
20260830063004 71 165 6.0 9.0 0.00 0.13 0.00 83 1015.1
20260830062004 71 165 6.0 9.0 0.00 0.13 0.00 84 1015.1
20260830060504 71 160 7.0 12.0 0.00 0.13 0.00 84 1015.2
20260830060004 71 170 7.0 12.0 0.00 0.13 0.00 84 1015.2
20260830054503 71 162 6.0 10.0 0.00 0.13 0.00 84 1015.4
20260830053504 71 167 5.0 9.0 0.00 0.13 0.00 85 1015.4
20260830052004 71 170 5.0 8.0 0.00 0.13 0.00 85 1015.4
20260830051503 71 165 5.0 9.0 0.00 0.13 0.00 86 1015.3
20260830050503 71 165 5.0 10.0 0.00 0.13 0.00 86 1015.3
20260830045504 71 162 6.0 10.0 0.00 0.13 0.13 85 1015.2
20260830045004 71 163 7.0 13.0 0.00 0.13 0.13 86 1015.2
20260830044503 71 162 6.0 12.0 0.00 0.13 0.13 86 1015.2